﻿測定場所 (Monitoring sites),日付 (Measurement date),時間 (Measurement time),線量率 最大値 (max) μGy/h,線量率 最小値 (min) μGy/h,線量率 平均値 (average) μGy/h,
江戸川 (Edogawa),2016-11-27,23:01～24:00,0.0717,0.0632,0.0672,
江戸川 (Edogawa),2016-11-27,22:01～23:00,0.0705,0.0623,0.0668,
江戸川 (Edogawa),2016-11-27,21:01～22:00,0.0665,0.0561,0.0618,
江戸川 (Edogawa),2016-11-27,20:01～21:00,0.0611,0.0531,0.0568,
江戸川 (Edogawa),2016-11-27,19:01～20:00,0.0647,0.0562,0.0607,
江戸川 (Edogawa),2016-11-27,18:01～19:00,0.0678,0.0587,0.0638,
江戸川 (Edogawa),2016-11-27,17:01～18:00,0.0671,0.0572,0.0621,
江戸川 (Edogawa),2016-11-27,16:01～17:00,0.0593,0.0495,0.0554,
江戸川 (Edogawa),2016-11-27,15:01～16:00,0.0572,0.0503,0.0532,
江戸川 (Edogawa),2016-11-27,14:01～15:00,0.0560,0.0499,0.0528,
江戸川 (Edogawa),2016-11-27,13:01～14:00,0.0556,0.0498,0.0528,
江戸川 (Edogawa),2016-11-27,12:01～13:00,0.0564,0.0498,0.0528,
江戸川 (Edogawa),2016-11-27,11:01～12:00,0.0557,0.0493,0.0529,
江戸川 (Edogawa),2016-11-27,10:01～11:00,0.0569,0.0501,0.0533,
江戸川 (Edogawa),2016-11-27,09:01～10:00,0.0571,0.0490,0.0534,
江戸川 (Edogawa),2016-11-27,08:01～09:00,0.0568,0.0499,0.0537,
江戸川 (Edogawa),2016-11-27,07:01～08:00,0.0581,0.0493,0.0533,
江戸川 (Edogawa),2016-11-27,06:01～07:00,0.0580,0.0492,0.0536,
江戸川 (Edogawa),2016-11-27,05:01～06:00,0.0593,0.0494,0.0538,
江戸川 (Edogawa),2016-11-27,04:01～05:00,0.0562,0.0498,0.0536,
江戸川 (Edogawa),2016-11-27,03:01～04:00,0.0559,0.0508,0.0532,
江戸川 (Edogawa),2016-11-27,02:01～03:00,0.0571,0.0506,0.0536,
江戸川 (Edogawa),2016-11-27,01:01～02:00,0.0559,0.0496,0.0527,
江戸川 (Edogawa),2016-11-27,00:01～01:00,0.0570,0.0491,0.0527,
江戸川 (Edogawa),2016-11-26,23:01～24:00,0.0563,0.0490,0.0524,
江戸川 (Edogawa),2016-11-26,22:01～23:00,0.0550,0.0486,0.0524,
江戸川 (Edogawa),2016-11-26,21:01～22:00,0.0556,0.0483,0.0522,
江戸川 (Edogawa),2016-11-26,20:01～21:00,0.0565,0.0486,0.0525,
江戸川 (Edogawa),2016-11-26,19:01～20:00,0.0558,0.0498,0.0527,
江戸川 (Edogawa),2016-11-26,18:01～19:00,0.0553,0.0489,0.0523,
江戸川 (Edogawa),2016-11-26,17:01～18:00,0.0543,0.0487,0.0517,
江戸川 (Edogawa),2016-11-26,16:01～17:00,0.0554,0.0492,0.0522,
江戸川 (Edogawa),2016-11-26,15:01～16:00,0.0558,0.0497,0.0526,
江戸川 (Edogawa),2016-11-26,14:01～15:00,0.0559,0.0499,0.0529,
江戸川 (Edogawa),2016-11-26,13:01～14:00,0.0558,0.0507,0.0532,
江戸川 (Edogawa),2016-11-26,12:01～13:00,0.0573,0.0501,0.0532,
江戸川 (Edogawa),2016-11-26,11:01～12:00,0.0569,0.0506,0.0532,
江戸川 (Edogawa),2016-11-26,10:01～11:00,0.0575,0.0499,0.0533,
江戸川 (Edogawa),2016-11-26,09:01～10:00,0.0574,0.0506,0.0535,
江戸川 (Edogawa),2016-11-26,08:01～09:00,0.0556,0.0503,0.0529,
江戸川 (Edogawa),2016-11-26,07:01～08:00,0.0572,0.0501,0.0533,
江戸川 (Edogawa),2016-11-26,06:01～07:00,0.0580,0.0496,0.0531,
江戸川 (Edogawa),2016-11-26,05:01～06:00,0.0561,0.0481,0.0530,
江戸川 (Edogawa),2016-11-26,04:01～05:00,0.0566,0.0495,0.0532,
江戸川 (Edogawa),2016-11-26,03:01～04:00,0.0565,0.0504,0.0533,
江戸川 (Edogawa),2016-11-26,02:01～03:00,0.0558,0.0496,0.0530,
江戸川 (Edogawa),2016-11-26,01:01～02:00,0.0551,0.0499,0.0527,
江戸川 (Edogawa),2016-11-26,00:01～01:00,0.0561,0.0497,0.0528,
江戸川 (Edogawa),2016-11-25,23:01～24:00,0.0549,0.0491,0.0522,
江戸川 (Edogawa),2016-11-25,22:01～23:00,0.0560,0.0490,0.0525,
江戸川 (Edogawa),2016-11-25,21:01～22:00,0.0562,0.0501,0.0528,
江戸川 (Edogawa),2016-11-25,20:01～21:00,0.0554,0.0505,0.0525,
江戸川 (Edogawa),2016-11-25,19:01～20:00,0.0564,0.0499,0.0525,
江戸川 (Edogawa),2016-11-25,18:01～19:00,0.0553,0.0500,0.0526,
江戸川 (Edogawa),2016-11-25,17:01～18:00,0.0566,0.0498,0.0526,
江戸川 (Edogawa),2016-11-25,16:01～17:00,0.0560,0.0494,0.0526,
江戸川 (Edogawa),2016-11-25,15:01～16:00,0.0554,0.0494,0.0524,
江戸川 (Edogawa),2016-11-25,14:01～15:00,0.0573,0.0502,0.0530,
江戸川 (Edogawa),2016-11-25,13:01～14:00,0.0591,0.0502,0.0539,
江戸川 (Edogawa),2016-11-25,12:01～13:00,0.0564,0.0500,0.0533,
江戸川 (Edogawa),2016-11-25,11:01～12:00,0.0567,0.0502,0.0538,
江戸川 (Edogawa),2016-11-25,10:01～11:00,0.0562,0.0513,0.0536,
江戸川 (Edogawa),2016-11-25,09:01～10:00,0.0557,0.0500,0.0531,
江戸川 (Edogawa),2016-11-25,08:01～09:00,0.0557,0.0494,0.0526,
江戸川 (Edogawa),2016-11-25,07:01～08:00,0.0551,0.0502,0.0525,
江戸川 (Edogawa),2016-11-25,06:01～07:00,0.0553,0.0490,0.0519,
江戸川 (Edogawa),2016-11-25,05:01～06:00,0.0553,0.0479,0.0518,
江戸川 (Edogawa),2016-11-25,04:01～05:00,0.0551,0.0480,0.0518,
江戸川 (Edogawa),2016-11-25,03:01～04:00,0.0548,0.0482,0.0516,
江戸川 (Edogawa),2016-11-25,02:01～03:00,0.0562,0.0491,0.0520,
江戸川 (Edogawa),2016-11-25,01:01～02:00,0.0549,0.0493,0.0516,
江戸川 (Edogawa),2016-11-25,00:01～01:00,0.0546,0.0480,0.0514,
江戸川 (Edogawa),2016-11-24,23:01～24:00,0.0551,0.0474,0.0514,
江戸川 (Edogawa),2016-11-24,22:01～23:00,0.0542,0.0491,0.0515,
江戸川 (Edogawa),2016-11-24,21:01～22:00,0.0546,0.0475,0.0509,
江戸川 (Edogawa),2016-11-24,20:01～21:00,0.0558,0.0484,0.0514,
江戸川 (Edogawa),2016-11-24,19:01～20:00,0.0549,0.0479,0.0511,
江戸川 (Edogawa),2016-11-24,18:01～19:00,0.0551,0.0469,0.0515,
江戸川 (Edogawa),2016-11-24,17:01～18:00,0.0563,0.0488,0.0521,
江戸川 (Edogawa),2016-11-24,16:01～17:00,0.0635,0.0505,0.0562,
江戸川 (Edogawa),2016-11-24,15:01～16:00,0.0676,0.0569,0.0635,
江戸川 (Edogawa),2016-11-24,14:01～15:00,0.0634,0.0571,0.0598,
江戸川 (Edogawa),2016-11-24,13:01～14:00,0.0616,0.0562,0.0593,
江戸川 (Edogawa),2016-11-24,12:01～13:00,0.0643,0.0560,0.0602,
江戸川 (Edogawa),2016-11-24,11:01～12:00,0.0653,0.0570,0.0611,
江戸川 (Edogawa),2016-11-24,10:01～11:00,0.0682,0.0597,0.0631,
江戸川 (Edogawa),2016-11-24,09:01～10:00,0.0707,0.0627,0.0666,
江戸川 (Edogawa),2016-11-24,08:01～09:00,0.0714,0.0636,0.0675,
江戸川 (Edogawa),2016-11-24,07:01～08:00,0.0715,0.0635,0.0673,
江戸川 (Edogawa),2016-11-24,06:01～07:00,0.0739,0.0645,0.0690,
江戸川 (Edogawa),2016-11-24,05:01～06:00,0.0740,0.0668,0.0710,
江戸川 (Edogawa),2016-11-24,04:01～05:00,0.0734,0.0638,0.0679,
江戸川 (Edogawa),2016-11-24,03:01～04:00,0.0683,0.0594,0.0643,
江戸川 (Edogawa),2016-11-24,02:01～03:00,0.0638,0.0545,0.0594,
江戸川 (Edogawa),2016-11-24,01:01～02:00,0.0596,0.0534,0.0569,
江戸川 (Edogawa),2016-11-24,00:01～01:00,0.0625,0.0530,0.0578,
江戸川 (Edogawa),2016-11-23,23:01～24:00,0.0605,0.0519,0.0551,
江戸川 (Edogawa),2016-11-23,22:01～23:00,0.0590,0.0490,0.0549,
江戸川 (Edogawa),2016-11-23,21:01～22:00,0.0564,0.0502,0.0526,
江戸川 (Edogawa),2016-11-23,20:01～21:00,0.0556,0.0487,0.0523,
江戸川 (Edogawa),2016-11-23,19:01～20:00,0.0562,0.0504,0.0528,
江戸川 (Edogawa),2016-11-23,18:01～19:00,0.0565,0.0493,0.0528,
江戸川 (Edogawa),2016-11-23,17:01～18:00,0.0572,0.0486,0.0529,
江戸川 (Edogawa),2016-11-23,16:01～17:00,0.0554,0.0497,0.0528,
江戸川 (Edogawa),2016-11-23,15:01～16:00,0.0568,0.0496,0.0525,
江戸川 (Edogawa),2016-11-23,14:01～15:00,0.0552,0.0499,0.0525,
江戸川 (Edogawa),2016-11-23,13:01～14:00,0.0559,0.0499,0.0524,
江戸川 (Edogawa),2016-11-23,12:01～13:00,0.0559,0.0479,0.0523,
江戸川 (Edogawa),2016-11-23,11:01～12:00,0.0554,0.0485,0.0525,
江戸川 (Edogawa),2016-11-23,10:01～11:00,0.0564,0.0496,0.0530,
江戸川 (Edogawa),2016-11-23,09:01～10:00,0.0581,0.0503,0.0540,
江戸川 (Edogawa),2016-11-23,08:01～09:00,0.0609,0.0524,0.0563,
江戸川 (Edogawa),2016-11-23,07:01～08:00,0.0715,0.0549,0.0646,
江戸川 (Edogawa),2016-11-23,06:01～07:00,0.0741,0.0628,0.0677,
江戸川 (Edogawa),2016-11-23,05:01～06:00,0.0619,0.0508,0.0549,
江戸川 (Edogawa),2016-11-23,04:01～05:00,0.0570,0.0493,0.0538,
江戸川 (Edogawa),2016-11-23,03:01～04:00,0.0569,0.0501,0.0538,
江戸川 (Edogawa),2016-11-23,02:01～03:00,0.0568,0.0502,0.0531,
江戸川 (Edogawa),2016-11-23,01:01～02:00,0.0555,0.0501,0.0529,
江戸川 (Edogawa),2016-11-23,00:01～01:00,0.0567,0.0495,0.0532,
江戸川 (Edogawa),2016-11-22,23:01～24:00,0.0561,0.0497,0.0530,
江戸川 (Edogawa),2016-11-22,22:01～23:00,0.0567,0.0489,0.0533,
江戸川 (Edogawa),2016-11-22,21:01～22:00,0.0568,0.0493,0.0530,
江戸川 (Edogawa),2016-11-22,20:01～21:00,0.0561,0.0504,0.0532,
江戸川 (Edogawa),2016-11-22,19:01～20:00,0.0571,0.0495,0.0533,
江戸川 (Edogawa),2016-11-22,18:01～19:00,0.0584,0.0498,0.0536,
江戸川 (Edogawa),2016-11-22,17:01～18:00,0.0566,0.0504,0.0534,
江戸川 (Edogawa),2016-11-22,16:01～17:00,0.0575,0.0506,0.0537,
江戸川 (Edogawa),2016-11-22,15:01～16:00,0.0571,0.0505,0.0535,
江戸川 (Edogawa),2016-11-22,14:01～15:00,0.0576,0.0501,0.0536,
江戸川 (Edogawa),2016-11-22,13:01～14:00,0.0583,0.0506,0.0542,
江戸川 (Edogawa),2016-11-22,12:01～13:00,0.0566,0.0510,0.0539,
江戸川 (Edogawa),2016-11-22,11:01～12:00,0.0562,0.0500,0.0536,
江戸川 (Edogawa),2016-11-22,10:01～11:00,0.0576,0.0497,0.0533,
江戸川 (Edogawa),2016-11-22,09:01～10:00,0.0579,0.0489,0.0539,
江戸川 (Edogawa),2016-11-22,08:01～09:00,0.0596,0.0513,0.0557,
江戸川 (Edogawa),2016-11-22,07:01～08:00,0.0660,0.0547,0.0600,
江戸川 (Edogawa),2016-11-22,06:01～07:00,0.0622,0.0534,0.0589,
江戸川 (Edogawa),2016-11-22,05:01～06:00,0.0645,0.0574,0.0607,
江戸川 (Edogawa),2016-11-22,04:01～05:00,0.0649,0.0557,0.0603,
江戸川 (Edogawa),2016-11-22,03:01～04:00,0.0618,0.0543,0.0584,
江戸川 (Edogawa),2016-11-22,02:01～03:00,0.0618,0.0537,0.0571,
江戸川 (Edogawa),2016-11-22,01:01～02:00,0.0596,0.0521,0.0561,
江戸川 (Edogawa),2016-11-22,00:01～01:00,0.0575,0.0507,0.0537,
江戸川 (Edogawa),2016-11-21,23:01～24:00,0.0569,0.0503,0.0529,
江戸川 (Edogawa),2016-11-21,22:01～23:00,0.0554,0.0497,0.0526,
江戸川 (Edogawa),2016-11-21,21:01～22:00,0.0551,0.0498,0.0528,
江戸川 (Edogawa),2016-11-21,20:01～21:00,0.0569,0.0506,0.0536,
江戸川 (Edogawa),2016-11-21,19:01～20:00,0.0583,0.0507,0.0548,
江戸川 (Edogawa),2016-11-21,18:01～19:00,0.0589,0.0524,0.0561,
江戸川 (Edogawa),2016-11-21,17:01～18:00,0.0637,0.0532,0.0576,
江戸川 (Edogawa),2016-11-21,16:01～17:00,0.0564,0.0513,0.0537,
江戸川 (Edogawa),2016-11-21,15:01～16:00,0.0559,0.0492,0.0531,
江戸川 (Edogawa),2016-11-21,14:01～15:00,0.0567,0.0494,0.0528,
江戸川 (Edogawa),2016-11-21,13:01～14:00,0.0558,0.0495,0.0525,
江戸川 (Edogawa),2016-11-21,12:01～13:00,0.0571,0.0490,0.0533,
江戸川 (Edogawa),2016-11-21,11:01～12:00,0.0560,0.0500,0.0530,
江戸川 (Edogawa),2016-11-21,10:01～11:00,0.0562,0.0495,0.0533,
江戸川 (Edogawa),2016-11-21,09:01～10:00,0.0565,0.0502,0.0534,
江戸川 (Edogawa),2016-11-21,08:01～09:00,0.0568,0.0501,0.0534,
江戸川 (Edogawa),2016-11-21,07:01～08:00,0.0563,0.0509,0.0531,
江戸川 (Edogawa),2016-11-21,06:01～07:00,0.0559,0.0510,0.0533,
江戸川 (Edogawa),2016-11-21,05:01～06:00,0.0563,0.0504,0.0535,
江戸川 (Edogawa),2016-11-21,04:01～05:00,0.0564,0.0504,0.0534,
江戸川 (Edogawa),2016-11-21,03:01～04:00,0.0567,0.0513,0.0536,
江戸川 (Edogawa),2016-11-21,02:01～03:00,0.0566,0.0507,0.0539,
江戸川 (Edogawa),2016-11-21,01:01～02:00,0.0571,0.0500,0.0539,
江戸川 (Edogawa),2016-11-21,00:01～01:00,0.0569,0.0509,0.0538,
